Snowfall_Accumulation
2.0 4.8 6.1 3.1 3.4 3.1 3.4 3.9 3.2 1.8 0.7 2.0 2.3 1.4 0.7 0.2 0.2 0.2 0.2 0.2 0.2 0.2 0.1 0.1 0.1 0.1 0.1 0.0 0.0 0.0 0.0 0.0 0.0 0.0 0.0 0.0 0.0 0.0 0.0 0.0 0.1 0.0 0.1 0.0
4.6 5.4 1.9 0.8 1.5 2.8 3.9 5.4 4.2 2.6 1.2 2.3 2.5 1.6 0.7 0.4 0.4 0.4 0.4 0.4 0.3 0.2 0.1 0.1 0.1 0.1 0.1 0.1 0.0 0.0 0.0 0.0 0.0 0.0 0.0 0.0 0.0 0.0 0.0 0.0 0.0 0.2 0.1 0.0
4.9 2.4 1.0 1.7 2.9 4.9 4.8 4.6 3.9 3.7 2.5 2.1 3.5 2.6 1.2 0.6 0.3 0.3 0.2 0.3 0.4 0.4 0.6 0.1 0.1 0.1 0.5 0.1 0.1 0.0 0.0 0.0 0.0 0.0 0.0 0.0 0.0 0.0 0.0 0.0 0.0 0.1 0.2 0.1
3.2 0.8 1.3 2.7 3.2 4.6 5.4 1.9 2.7 3.7 6.1 6.6 4.9 7.4 1.6 1.0 0.8 0.6 0.4 0.3 0.3 0.3 0.4 0.3 0.2 0.2 0.2 0.8 0.1 0.4 0.1 0.0 0.0 0.0 0.0 0.0 0.0 0.0 0.0 0.0 0.0 0.1 0.1 0.1
4.5 1.6 2.0 3.3 2.3 2.7 3.6 1.7 2.5 3.9 7.3 9.3 5.1 8.0 2.6 1.4 1.5 1.3 0.7 0.5 0.4 0.3 0.4 0.4 0.3 0.3 0.2 0.7 0.7 0.5 0.2 0.0 0.0 0.0 0.0 0.0 0.0 0.0 0.0 0.0 0.0 0.1 0.1 0.1
2.8 0.9 1.7 2.2 0.9 1.6 2.3 2.7 3.3 5.0 10.0 18.1 5.8 6.4 4.1 2.6 2.8 2.1 1.1 0.9 0.9 0.7 0.5 0.5 0.3 0.2 0.2 0.1 0.2 0.1 0.2 0.1 0.0 0.0 0.0 0.0 0.1 0.0 0.0 0.0 0.0 0.0 0.1 0.1
5.4 3.3 2.0 1.2 3.3 2.8 5.2 12.0 22.8 24.7 25.1 14.4 2.3 4.6 4.5 2.9 2.6 2.9 2.9 2.3 1.7 1.2 0.7 0.6 0.6 0.5 0.3 0.2 0.3 0.3 0.3 0.2 0.2 0.2 0.2 0.0 0.3 0.3 0.0 0.0 0.0 0.1 0.2 0.2
8.6 7.1 3.5 2.4 3.8 5.0 5.4 9.9 18.0 17.0 11.3 5.1 3.0 4.7 4.1 3.1 2.6 2.5 2.5 2.4 1.5 0.9 0.6 0.7 0.7 0.7 0.3 0.3 0.3 0.3 0.3 0.2 0.2 0.2 0.2 0.2 0.0 0.3 0.0 0.0 0.1 0.1 0.2 0.1
10.1 6.5 2.3 1.6 1.7 3.7 7.1 8.3 6.8 12.0 9.2 6.0 4.8 4.1 3.0 2.0 1.7 1.9 2.4 2.1 2.0 1.3 0.9 0.7 1.0 0.9 0.8 0.5 0.4 0.5 0.4 0.3 0.2 0.2 0.2 0.2 0.2 0.2 0.4 0.1 0.1 0.1 0.1 0.1
11.2 9.2 3.7 1.8 2.3 3.0 4.4 6.4 8.9 16.5 15.0 8.9 5.3 3.9 4.8 3.4 2.6 2.3 2.5 2.9 2.5 2.1 1.2 1.0 0.9 1.0 0.7 0.7 0.7 0.4 0.5 0.4 0.3 0.2 0.2 0.2 0.2 0.3 0.3 0.2 0.2 0.2 0.2 0.2
9.3 11.9 7.7 5.5 7.7 8.0 6.8 8.9 11.1 13.1 11.0 9.8 7.4 5.9 5.6 4.6 4.0 3.7 3.1 3.0 3.0 2.9 2.7 1.9 1.2 1.0 1.0 0.7 0.5 0.7 0.6 0.4 0.4 0.3 0.4 0.3 0.3 0.2 0.3 0.5 0.4 0.4 0.4 0.6
9.1 12.6 10.7 6.6 4.4 4.3 6.7 8.5 10.4 15.0 11.4 6.9 7.3 6.5 4.4 3.5 3.7 3.6 3.4 3.1 2.9 3.3 3.4 2.9 2.1 1.7 1.0 1.3 1.2 1.0 1.0 0.9 0.7 0.4 0.7 0.6 0.5 0.6 0.7 0.7 0.6 0.6 0.6 0.8
14.0 17.2 15.1 9.1 7.4 5.7 8.5 7.3 8.1 9.9 10.4 8.1 7.3 5.4 3.3 2.7 2.9 2.9 3.2 3.2 3.1 3.0 3.4 2.9 2.3 1.9 1.3 1.7 1.5 1.4 1.5 1.2 1.0 0.6 0.5 0.9 1.0 1.0 1.0 0.8 0.7 0.7 0.7 0.8
14.0 17.1 13.1 11.8 10.3 9.6 9.4 7.5 6.8 10.6 13.5 8.0 4.9 4.0 3.4 3.3 3.1 3.0 3.1 3.2 3.2 3.0 2.9 3.1 3.1 2.6 1.6 1.5 1.5 1.4 1.7 1.5 1.1 1.2 1.5 1.2 1.3 1.6 1.3 0.8 0.9 0.8 1.3 2.4
12.4 14.7 7.0 4.3 3.9 5.2 5.9 5.6 5.9 8.0 7.8 7.3 4.6 3.9 4.1 4.2 4.2 4.0 3.7 3.4 3.0 3.1 2.9 2.9 3.5 3.6 2.7 2.2 1.4 1.5 1.7 1.4 1.3 1.2 1.8 2.0 2.1 1.6 1.1 0.9 0.9 1.1 1.9 3.1
11.0 12.6 6.6 4.0 2.6 3.7 4.6 3.7 4.2 4.8 5.0 4.9 3.8 4.2 3.5 3.6 3.3 3.5 3.4 3.6 3.6 3.5 3.5 3.0 2.9 3.3 3.2 3.3 2.5 1.7 1.8 1.4 1.5 1.4 1.6 2.0 2.1 1.8 1.3 0.7 1.0 1.3 1.5 2.4
11.0 11.8 10.7 6.1 2.8 5.2 7.6 5.0 4.9 5.0 4.9 5.2 5.3 4.9 3.7 3.6 3.6 4.1 4.0 4.2 4.4 4.4 4.3 3.6 3.4 4.0 4.1 3.5 2.9 2.6 2.1 2.0 1.6 1.2 1.4 2.0 2.1 1.8 1.4 1.2 1.0 1.1 1.4 1.6
9.9 11.6 14.7 9.9 7.2 11.5 7.2 4.1 4.3 5.0 5.5 5.5 5.4 4.6 4.3 4.3 4.2 4.0 3.6 4.7 5.2 4.9 4.6 4.0 4.0 4.2 4.1 3.3 3.4 2.9 2.6 2.2 2.5 1.7 1.8 1.8 2.2 2.5 2.0 1.8 1.5 1.2 1.1 1.6
5.5 11.3 17.6 14.6 10.4 6.6 4.3 3.1 4.6 5.7 6.1 5.4 4.7 3.8 3.5 3.5 3.2 3.4 3.1 3.6 4.7 4.8 4.5 4.1 4.3 4.5 3.6 3.6 3.1 3.2 3.0 2.8 2.8 3.2 2.4 2.5 2.5 2.6 2.3 2.2 1.9 1.5 1.5 1.9
6.3 11.1 18.8 16.9 12.7 7.3 4.8 2.5 2.9 4.8 6.9 4.3 3.9 3.8 3.7 3.7 4.8 4.5 3.4 2.9 3.4 3.7 3.5 3.5 3.4 3.1 3.3 3.3 2.9 3.2 3.8 3.7 3.9 3.8 3.6 3.1 2.9 3.0 3.1 2.5 1.9 1.7 1.5 1.6
11.1 16.8 18.9 13.9 11.4 5.2 3.2 2.0 2.2 6.6 8.0 3.8 3.5 3.8 3.9 5.1 6.0 4.9 3.6 3.4 3.4 3.5 3.2 2.7 2.4 2.7 3.2 3.0 3.2 3.7 3.8 4.3 4.6 4.3 3.3 3.5 3.1 3.5 3.1 2.5 2.1 1.8 1.6 1.2
7.7 11.2 11.7 11.1 12.6 6.5 2.7 2.8 5.8 7.0 3.5 2.9 2.9 3.1 3.4 3.7 3.4 3.3 3.5 3.7 3.8 4.0 3.4 2.7 2.5 2.7 2.8 2.9 3.3 3.6 3.9 3.9 3.8 3.9 3.5 3.5 3.0 2.8 2.6 2.4 2.5 2.1 2.2 2.0
6.3 8.6 9.1 8.6 7.2 4.7 3.6 4.5 4.7 3.9 3.5 2.6 2.8 2.6 3.1 3.3 3.4 3.6 3.8 3.7 4.0 4.0 3.7 3.2 2.7 2.7 2.4 3.0 3.4 4.0 3.8 3.4 3.7 3.9 3.4 3.4 2.8 2.7 2.8 3.1 2.9 2.5 2.8 2.8
4.6 4.7 6.5 5.9 4.4 3.5 3.3 3.0 2.6 2.5 2.9 2.6 2.8 3.0 3.3 3.6 3.6 3.9 3.9 4.0 4.4 4.3 3.6 3.7 3.1 3.1 3.0 3.1 3.5 3.9 4.0 3.6 3.8 3.8 3.5 3.2 3.3 3.1 2.9 3.1 3.3 3.7 3.9 4.7
3.9 4.1 5.1 4.8 3.5 2.7 2.1 2.2 2.3 2.1 2.0 2.1 2.2 2.6 3.3 3.5 3.7 4.0 4.2 4.3 4.1 4.3 4.2 3.9 3.7 3.6 3.3 3.3 3.5 3.4 3.4 3.2 3.6 3.4 3.4 3.2 3.2 3.6 3.7 4.1 4.1 4.6 4.7 5.7
3.0 4.0 5.1 4.6 3.2 3.9 3.0 2.2 2.2 2.4 2.2 2.3 2.6 2.6 2.7 3.2 3.8 4.0 4.2 4.2 4.2 4.4 4.3 4.0 3.6 3.5 3.6 3.7 3.8 3.4 3.1 3.2 3.8 3.8 3.2 3.1 3.3 3.5 3.5 3.8 4.3 3.3 4.1 4.3